Skip Page Navigation
NASA JPL Caltech
NASA Logo - Jet Propulsion Laboratory + View the NASA Portal
+ Center for Near-Earth Object Studies
JPL Home Earth Solar System Stars & Galaxies Technology
JPL Solar System Dynamics
BODIES ORBITS EPHEMERIDES TOOLS PHYSICAL DATA DISCOVERY FAQ SITE MAP
IMPORTANT: The SSD Announcement email list is now available. Major changes are coming in the near future, including possible hostname and/or URL changes. To be notified of such changes, subscribe to this email list.

Please visit this page for more details.


JPL Small-Body Database Browser
Search: [ help ]  
382835 (2004 AT23)
Classification: Main-belt Asteroid          SPK-ID: 2382835
Ephemeris | Orbit Diagram | Orbital Elements | Mission Design | Physical Parameters | Discovery Circumstances | Close-Approach Data ]

[ show orbit diagram ]
Orbital Elements at Epoch 2458600.5 (2019-Apr-27.0) TDB
Reference: JPL 9 (heliocentric ecliptic J2000)
 Element Value Uncertainty (1-sigma)   Units 
e .1260374317657388 1.2862e-07  
a 2.275918100202202 3.2927e-08 au
q 1.989067227943557 2.8266e-07 au
i 2.407053847489588 1.4914e-05 deg
node 265.8953201977622 0.00029154 deg
peri 219.4865917700173 0.00030144 deg
M 156.4223944556397 8.0546e-05 deg
tp 2458055.583698417190
(2017-Oct-29.08369842)
0.00027327 TDB
period 1254.103475736296
3.43
2.7215e-05
7.451e-08
d
yr
n .2870576527097499 6.2294e-09 deg/d
Q 2.562768972460847 3.7076e-08 au
  Orbit Determination Parameters
   # obs. used (total)      50  
   data-arc span      5178 days (14.18 yr)  
   first obs. used      2004-01-15  
   last obs. used      2018-03-20  
   planetary ephem.      DE431  
   SB-pert. ephem.      SB431-N16  
   condition code      0  
   norm. resid. RMS      .53842  
   source      ORB  
   producer      Otto Matic  
   solution date      2019-Jul-14 08:30:43  

Additional Information
 Earth MOID = 1.00555 au 
 Jupiter MOID = 2.49421 au 
 T_jup = 3.597 
[ show covariance matrix ]

Ephemeris | Orbit Diagram | Orbital Elements | Mission Design | Physical Parameters | Discovery Circumstances | Close-Approach Data ]

Physical Parameter Table
Parameter Symbol Value Units Sigma Reference Notes
absolute magnitude H 18.6   n/a MPO278427  

382835 (2004 AT23)          Discovered 2004-Jan-15 by Spacewatch at Kitt Peak
Reference: Last Updated: 2014-01-21

[ show close-approach data ]
Alternate Designations
 2004 AT23 = 2006 UU127 
Ephemeris | Orbit Diagram | Orbital Elements | Mission Design | Physical Parameters | Discovery Circumstances | Close-Approach Data ]
ABOUT SSD CREDITS/AWARDS PRIVACY/COPYRIGHT GLOSSARY LINKS
FirstGov
(server date/time)  
NASA Home Page
Site Manager:   Ryan S. Park
Webmaster  Alan B. Chamberlin